EA3IR Weather Reports


time (UTC)temp
C
wind
direction
speed
KPH
gust
KPH
rain 1hr
cm
rain 24hr
cm
rain mn
cm
humidity
%
barometer
mb
20260507140120 18 70 1.6 4.8 0.00 1.45 0.00 67 1013.6
20260507135120 18 70 1.6 4.8 0.00 1.45 0.00 67 1013.6
20260507134620 18 70 1.6 4.8 0.00 1.45 0.00 67 1013.6
20260507134120 18 70 1.6 4.8 0.00 1.45 0.00 67 1013.6
20260507132619 18 70 1.6 4.8 0.00 1.45 0.00 67 1013.6
20260507132120 18 70 1.6 4.8 0.00 1.45 0.00 67 1013.6
20260507131620 18 70 1.6 4.8 0.00 1.45 0.00 67 1013.6
20260507131120 18 70 1.6 4.8 0.00 1.45 0.00 67 1013.6
20260507130620 18 70 1.6 4.8 0.00 1.45 0.00 67 1013.6
20260507130120 18 70 1.6 4.8 0.00 1.45 0.00 67 1013.6
20260507125620 18 70 1.6 4.8 0.00 1.45 0.00 67 1013.6
20260507125120 18 70 1.6 4.8 0.00 1.45 0.00 67 1013.6
20260507124620 18 70 1.6 4.8 0.00 1.45 0.00 67 1013.6
20260507124120 18 70 1.6 4.8 0.00 1.45 0.00 67 1013.6
20260507123620 18 70 1.6 4.8 0.00 1.45 0.00 67 1013.6
20260507123120 18 70 1.6 4.8 0.00 1.45 0.00 67 1013.6
20260507122620 18 70 1.6 4.8 0.00 1.45 0.00 67 1013.6
20260507122121 18 70 1.6 4.8 0.00 1.45 0.00 67 1013.6
20260507120620 18 70 1.6 4.8 0.00 1.45 0.00 67 1013.6
20260507120120 18 70 1.6 4.8 0.00 1.45 0.00 67 1013.6
20260507115620 18 70 1.6 4.8 0.00 1.45 0.00 67 1013.6
20260507115121 18 70 1.6 4.8 0.00 1.45 0.00 67 1013.6
20260507114120 18 70 1.6 4.8 0.00 1.45 0.00 67 1013.6
20260507113620 18 70 1.6 4.8 0.00 1.45 0.00 67 1013.6
20260507113121 18 70 1.6 4.8 0.00 1.45 0.00 67 1013.6
20260507112619 18 70 1.6 4.8 0.00 1.45 0.00 67 1013.6
20260507111619 18 70 1.6 4.8 0.00 1.45 0.00 67 1013.6
20260507111122 18 70 1.6 4.8 0.00 1.45 0.00 67 1013.6
20260507110620 18 70 1.6 4.8 0.00 1.45 0.00 67 1013.6
20260507110120 18 70 1.6 4.8 0.00 1.45 0.00 67 1013.6
20260507105620 18 70 1.6 4.8 0.00 1.45 0.00 67 1013.6
20260507105120 18 70 1.6 4.8 0.00 1.45 0.00 67 1013.6
20260507104120 18 70 1.6 4.8 0.00 1.45 0.00 67 1013.6
20260507102620 18 70 1.6 4.8 0.00 1.45 0.00 67 1013.6
20260507102120 18 70 1.6 4.8 0.00 1.45 0.00 67 1013.6
20260507101620 18 70 1.6 4.8 0.00 1.45 0.00 67 1013.6
20260507100620 18 70 1.6 4.8 0.00 1.45 0.00 67 1013.6
20260507100120 18 70 1.6 4.8 0.00 1.45 0.00 67 1013.6
20260507095620 18 70 1.6 4.8 0.00 1.45 0.00 67 1013.6
20260507095120 18 70 1.6 4.8 0.00 1.45 0.00 67 1013.6
20260507094620 18 70 1.6 4.8 0.00 1.45 0.00 67 1013.6
20260507094120 18 70 1.6 4.8 0.00 1.45 0.00 67 1013.6
20260507093620 18 70 1.6 4.8 0.00 1.45 0.00 67 1013.6
20260507093120 18 70 1.6 4.8 0.00 1.45 0.00 67 1013.6
20260507092120 18 70 1.6 4.8 0.00 1.45 0.00 67 1013.6
20260507091620 18 70 1.6 4.8 0.00 1.45 0.00 67 1013.6
20260507091120 18 70 1.6 4.8 0.00 1.45 0.00 67 1013.6
20260507090620 18 76 3.2 6.4 0.00 1.50 0.05 64 1013.6
20260507090121 18 205 3.2 6.4 0.00 1.50 0.05 67 1013.6
20260507085120 18 140 1.6 4.8 0.00 1.50 0.05 68 1013.7
20260507084619 18 107 1.6 6.4 0.00 1.50 0.05 68 1013.7
20260507083620 18 72 3.2 9.7 0.00 1.50 0.05 69 1013.8
20260507082620 17 100 1.6 3.2 0.00 1.50 0.05 70 1013.9
20260507082120 17 74 1.6 6.4 0.00 1.50 0.05 71 1013.9
20260507081620 17 76 3.2 6.4 0.00 1.50 0.05 72 1014.0
20260507081120 17 107 3.2 9.7 0.00 1.50 0.05 71 1014.1
20260507080120 17 111 3.2 4.8 0.00 1.50 0.05 71 1014.1
20260507075620 17 129 3.2 8.0 0.00 1.50 0.05 73 1014.1
20260507074619 17 41 1.6 6.4 0.00 1.50 0.05 72 1013.9
20260507074120 17 20 1.6 4.8 0.00 1.50 0.05 74 1013.9
20260507073120 16 20 1.6 6.4 0.00 1.50 0.05 75 1013.9
20260507072620 16 20 1.6 4.8 0.00 1.50 0.05 77 1013.9
20260507072120 16 20 1.6 3.2 0.00 1.50 0.05 80 1013.9
20260507071620 16 20 3.2 4.8 0.00 1.50 0.05 78 1013.8
20260507071121 16 20 1.6 4.8 0.00 1.50 0.05 82 1013.7
20260507070620 15 20 1.6 4.8 0.00 1.50 0.05 82 1013.7
20260507070120 15 20 1.6 4.8 0.00 1.50 0.05 82 1013.7
20260507065619 15 20 1.6 4.8 0.00 1.50 0.05 82 1013.8
20260507064619 15 20 1.6 3.2 0.05 1.50 0.05 83 1013.7
20260507064120 15 20 1.6 3.2 0.05 1.50 0.05 84 1013.7
20260507063619 15 20 1.6 3.2 0.05 1.50 0.05 85 1013.7
20260507063120 14 11 1.6 6.4 0.05 1.50 0.05 87 1013.6
20260507062619 14 263 0.0 1.6 0.05 1.50 0.05 88 1013.6
20260507062120 13 0 0.0 0.0 0.05 1.50 0.05 89 1013.6
20260507061619 13 262 1.6 1.6 0.05 1.50 0.05 89 1013.5
20260507061120 13 260 0.0 3.2 0.05 1.50 0.05 89 1013.4
20260507060619 12 260 0.0 1.6 0.05 1.50 0.05 90 1013.3
20260507060121 12 0 0.0 0.0 0.05 1.50 0.05 91 1013.4
20260507055620 12 261 0.0 1.6 0.05 1.50 0.05 91 1013.4
20260507055120 11 261 0.0 1.6 0.00 1.45 0.00 90 1013.3
20260507054620 11 261 0.0 1.6 0.00 1.45 0.00 91 1013.3
20260507054120 11 261 0.0 1.6 0.00 1.45 0.00 90 1013.3
20260507053620 11 0 0.0 0.0 0.00 1.45 0.00 90 1013.3
20260507053119 11 261 0.0 1.6 0.00 1.45 0.00 90 1013.3
20260507052620 11 261 0.0 1.6 0.00 1.45 0.00 90 1013.3
20260507052120 11 261 0.0 1.6 0.00 1.45 0.00 90 1013.2
20260507051620 11 261 0.0 3.2 0.00 1.45 0.00 90 1013.2
20260507051119 11 0 0.0 0.0 0.00 1.45 0.00 90 1013.2
20260507050619 11 261 0.0 1.6 0.00 1.45 0.00 90 1013.2
20260507050121 10 0 1.6 0.0 0.00 1.45 0.00 90 1013.1
20260507045120 10 264 1.6 3.2 0.00 1.45 0.00 90 1013.0
20260507044619 10 308 1.6 3.2 0.00 1.45 0.00 90 1013.1
20260507043619 10 0 0.0 0.0 0.00 1.45 0.00 90 1013.1
20260507042619 10 310 0.0 1.6 0.00 1.45 0.00 90 1013.0
20260507041619 11 309 0.0 1.6 0.00 1.45 0.00 90 1013.0
20260507040619 11 0 0.0 0.0 0.00 1.45 0.00 89 1013.0
20260507040120 11 309 0.0 1.6 0.00 1.45 0.00 90 1013.0
20260507035620 11 309 0.0 1.6 0.00 1.45 0.00 90 1012.9
20260507034620 11 310 0.0 1.6 0.00 1.45 0.00 90 1012.9
20260507033620 11 333 1.6 4.8 0.00 1.45 0.00 90 1012.9
20260507033120 11 19 1.6 3.2 0.00 1.45 0.00 90 1012.9
20260507032620 11 19 0.0 3.2 0.00 1.45 0.00 90 1012.8
20260507032120 11 0 0.0 0.0 0.00 1.45 0.00 90 1012.9
20260507031620 11 0 0.0 0.0 0.00 1.45 0.00 90 1012.8
20260507031121 11 19 0.0 1.6 0.00 1.45 0.00 90 1012.8
20260507030120 11 19 1.6 1.6 0.00 1.45 0.00 90 1012.9
20260507025619 12 249 1.6 3.2 0.00 1.45 0.00 90 1012.9
20260507025120 12 250 3.2 4.8 0.00 1.45 0.00 90 1012.9
20260507024620 12 249 4.8 6.4 0.00 1.45 0.00 90 1012.9
20260507024120 12 225 4.8 8.0 0.00 1.45 0.00 90 1013.0
20260507023619 12 220 4.8 8.0 0.00 1.45 0.00 90 1012.9
20260507023121 11 303 3.2 4.8 0.00 1.45 0.00 90 1012.9
20260507022619 12 302 3.2 4.8 0.00 1.45 0.00 90 1013.0
20260507022119 12 303 1.6 3.2 0.00 1.45 0.00 90 1013.0
20260507021619 12 302 1.6 3.2 0.00 1.45 0.00 90 1013.0
20260507021120 12 302 1.6 3.2 0.00 1.45 0.00 90 1013.0
20260507020620 12 303 0.0 1.6 0.00 1.45 0.00 90 1012.9
20260507020120 12 302 0.0 1.6 0.00 1.45 0.00 90 1013.0
20260507015619 12 302 0.0 1.6 0.00 1.45 0.00 90 1012.9
20260507015119 12 0 0.0 0.0 0.00 1.45 0.00 90 1012.9
20260507014620 12 0 0.0 0.0 0.00 1.45 0.00 90 1012.9
20260507014119 12 302 0.0 1.6 0.00 1.45 0.00 90 1013.1
20260507013620 12 0 0.0 0.0 0.00 1.45 0.00 90 1013.1
20260507013119 12 0 0.0 0.0 0.00 1.45 0.00 90 1013.2
20260507012619 12 0 0.0 0.0 0.00 1.45 0.00 90 1013.2
20260507012121 12 302 0.0 1.6 0.00 1.45 0.00 90 1013.3
20260507011620 12 303 0.0 1.6 0.00 1.45 0.00 90 1013.3
20260507011120 12 0 0.0 0.0 0.00 1.45 0.00 90 1013.4
20260507010619 12 0 0.0 0.0 0.00 1.45 0.00 90 1013.4
20260507010120 12 302 0.0 1.6 0.00 1.45 0.00 90 1013.4
20260507004621 12 302 0.0 1.6 0.00 1.45 0.00 90 1013.5
20260507004120 12 0 0.0 0.0 0.00 1.45 0.00 90 1013.6
20260507003120 12 302 0.0 1.6 0.00 1.45 0.00 90 1013.7
20260507002119 12 0 0.0 0.0 0.00 1.45 0.00 90 1013.7
20260507001619 12 0 0.0 0.0 0.00 1.45 0.00 90 1013.8
20260507001120 12 0 0.0 0.0 0.00 1.45 0.00 90 1013.8
20260507000619 12 0 0.0 0.0 0.00 1.45 0.00 90 1013.8
20260507000120 12 0 0.0 0.0 0.00 1.45 0.00 90 1013.8
20260506235619 12 0 0.0 0.0 0.00 1.45 0.00 89 1013.8
20260506235120 12 303 0.0 1.6 0.00 1.45 0.00 89 1013.8
20260506234621 12 303 0.0 1.6 0.00 1.45 0.00 89 1013.8
20260506234120 12 0 0.0 0.0 0.00 1.45 0.00 89 1013.8
20260506233119 12 302 0.0 1.6 0.00 1.45 0.00 89 1013.9
20260506232620 13 0 0.0 0.0 0.00 1.45 0.00 88 1013.9
20260506232121 13 302 0.0 1.6 0.00 1.45 0.00 88 1013.9
20260506231619 13 302 0.0 1.6 0.00 1.45 0.00 88 1013.9
20260506231119 13 303 0.0 1.6 0.00 1.45 0.00 87 1013.9
20260506230619 13 302 1.6 1.6 0.00 1.45 0.00 87 1014.0
20260506230121 13 302 1.6 4.8 0.00 1.45 0.00 87 1014.0
20260506225620 13 270 3.2 3.2 0.00 1.45 0.00 86 1014.0
20260506225120 13 258 3.2 6.4 0.00 1.45 0.00 86 1013.9
20260506224620 13 253 3.2 6.4 0.00 1.45 0.00 86 1013.9
20260506224120 13 244 3.2 6.4 0.00 1.45 0.00 87 1014.0
20260506223620 13 248 3.2 8.0 0.00 1.45 0.00 87 1013.9
20260506223120 13 251 3.2 9.7 0.00 1.45 0.00 88 1013.9
20260506222620 12 254 3.2 11.3 0.00 1.45 0.00 88 1013.9
20260506222120 12 254 4.8 6.4 0.00 1.45 0.00 89 1013.9
20260506221620 12 255 3.2 8.0 0.00 1.45 0.00 89 1013.8
20260506221119 12 256 3.2 9.7 0.00 1.45 0.00 89 1013.9
20260506220620 12 265 3.2 6.4 0.00 1.45 0.00 90 1013.9
20260506220123 12 258 3.2 6.4 0.00 1.45 0.00 90 1013.9
20260506215619 12 243 3.2 4.8 0.00 1.45 1.45 90 1014.0
20260506215120 12 250 3.2 6.4 0.00 1.45 1.45 90 1014.0
20260506214620 12 256 3.2 6.4 0.00 1.45 1.45 90 1013.9
20260506214120 12 249 3.2 6.4 0.00 1.45 1.45 90 1013.8
20260506213619 12 265 4.8 8.0 0.00 1.45 1.45 90 1013.9
20260506213121 12 258 4.8 8.0 0.00 1.45 1.45 90 1013.9
20260506212121 12 259 3.2 8.0 0.00 1.45 1.45 90 1013.9
20260506211120 12 327 1.6 4.8 0.00 1.45 1.45 90 1013.8
20260506210120 12 327 0.0 1.6 0.00 1.45 1.45 90 1013.8
20260506205619 13 0 0.0 0.0 0.00 1.45 1.45 90 1013.8
20260506205120 13 0 0.0 0.0 0.00 1.45 1.45 90 1013.9
20260506204620 13 0 0.0 0.0 0.03 1.45 1.45 90 1013.9
20260506204120 13 0 0.0 0.0 0.03 1.45 1.45 90 1013.9
20260506203620 13 0 0.0 0.0 0.03 1.45 1.45 90 1013.9
20260506203119 13 327 0.0 1.6 0.03 1.45 1.45 90 1013.9
20260506202619 13 0 0.0 0.0 0.05 1.45 1.45 90 1013.8
20260506202120 13 327 1.6 3.2 0.05 1.45 1.45 90 1013.8
20260506201621 13 327 1.6 4.8 0.05 1.45 1.45 90 1013.7
20260506200620 13 322 4.8 6.4 0.05 1.45 1.45 90 1013.6
20260506200120 13 334 4.8 11.3 0.05 1.45 1.45 90 1013.5
20260506195619 13 354 4.8 8.0 0.05 1.45 1.45 90 1013.5
20260506195120 13 2 4.8 8.0 0.05 1.45 1.45 90 1013.4
20260506194619 13 346 3.2 6.4 0.03 1.42 1.42 90 1013.3
20260506193619 13 326 4.8 6.4 0.03 1.42 1.42 90 1013.2
20260506193120 13 332 4.8 8.0 0.03 1.42 1.42 90 1013.2
20260506192620 13 339 4.8 11.3 0.00 1.40 1.40 90 1013.0
20260506191619 13 325 1.6 4.8 0.00 1.40 1.40 90 1012.9
20260506191121 13 313 1.6 6.4 0.00 1.45 1.40 90 1012.8
20260506185619 13 300 3.2 4.8 0.00 1.55 1.40 90 1012.7
20260506185120 13 298 3.2 4.8 0.00 1.55 1.40 90 1012.6
20260506184621 13 307 3.2 11.3 0.00 1.55 1.40 90 1012.6